SWA5150 KPIT-MKJP

Flight info

Callsign SWA5150
Flight time 3h 11m
Altitude 37000
Route AIR DCT GSO/N0450F380 DCT FLO DCT BAHAA DCT RAJAY DCT NEFTU/N0459F390
Aircraft B38M/M-SDE1FGHILORVWXY/HB1

Departure

Time 2026-04-28 11:32
Airport Pittsburgh International Airport (KPIT)

Arrival

Time 2026-04-28 14:43
Airport Norman Manley International Airport (MKJP)
Time Latitude Longitude Altitude Speed Heading
2026-04-28 11:04 40.49857 -80.24192 1158 ft 0 kts 172°
2026-04-28 11:05 40.49849 -80.24191 1158 ft 0 kts 172°
2026-04-28 11:14 40.49850 -80.24191 1158 ft 0 kts 172°
2026-04-28 11:21 40.49851 -80.24191 1158 ft 2 kts 168°
2026-04-28 11:21 40.49846 -80.24177 1158 ft 3 kts 113°
2026-04-28 11:21 40.49847 -80.24178 1158 ft 3 kts 127°
2026-04-28 11:21 40.49860 -80.24191 1158 ft 3 kts 176°
2026-04-28 11:22 40.49879 -80.24194 1157 ft 3 kts 166°
2026-04-28 11:22 40.49897 -80.24203 1156 ft 3 kts 141°
2026-04-28 11:22 40.49909 -80.24222 1156 ft 3 kts 108°
2026-04-28 11:22 40.49912 -80.24242 1155 ft 1 kts 92°
2026-04-28 11:23 40.49912 -80.24246 1155 ft 0 kts 92°
2026-04-28 11:24 40.49912 -80.24244 1158 ft 1 kts 92°
2026-04-28 11:25 40.49911 -80.24227 1156 ft 3 kts 92°
2026-04-28 11:25 40.49910 -80.24192 1158 ft 5 kts 92°
2026-04-28 11:25 40.49909 -80.24139 1158 ft 7 kts 91°
2026-04-28 11:25 40.49907 -80.24069 1158 ft 9 kts 91°
2026-04-28 11:26 40.49900 -80.23983 1156 ft 10 kts 118°
2026-04-28 11:26 40.49835 -80.23963 1158 ft 11 kts 181°
2026-04-28 11:26 40.49755 -80.23966 1158 ft 12 kts 182°
2026-04-28 11:26 40.49665 -80.23970 1158 ft 14 kts 182°
2026-04-28 11:27 40.49566 -80.23974 1158 ft 14 kts 182°
2026-04-28 11:27 40.49476 -80.23979 1158 ft 13 kts 182°
2026-04-28 11:27 40.49388 -80.23983 1158 ft 13 kts 182°
2026-04-28 11:27 40.49294 -80.23987 1158 ft 14 kts 182°
2026-04-28 11:28 40.49196 -80.23991 1157 ft 14 kts 181°
2026-04-28 11:28 40.49115 -80.23995 1157 ft 12 kts 188°
2026-04-28 11:28 40.49069 -80.24081 1156 ft 14 kts 274°
2026-04-28 11:28 40.49074 -80.24211 1155 ft 13 kts 272°
2026-04-28 11:29 40.49077 -80.24323 1155 ft 13 kts 272°
2026-04-28 11:29 40.49080 -80.24446 1156 ft 14 kts 272°
2026-04-28 11:29 40.49083 -80.24578 1155 ft 15 kts 272°
2026-04-28 11:29 40.49086 -80.24701 1156 ft 9 kts 271°
2026-04-28 11:30 40.49062 -80.24777 1154 ft 9 kts 215°
2026-04-28 11:30 40.48989 -80.24686 1154 ft 8 kts 91°
2026-04-28 11:30 40.48987 -80.24611 1154 ft 15 kts 92°
2026-04-28 11:31 40.48975 -80.24110 1154 ft 93 kts 92°
2026-04-28 11:31 40.48942 -80.22942 1153 ft 160 kts 92°
2026-04-28 11:31 40.48887 -80.21248 1230 ft 201 kts 92°
2026-04-28 11:31 40.48685 -80.19375 1544 ft 214 kts 117°
2026-04-28 11:32 40.47628 -80.18033 1986 ft 219 kts 163°
2026-04-28 11:32 40.46145 -80.18070 2596 ft 219 kts 201°
2026-04-28 11:32 40.45011 -80.19366 3137 ft 222 kts 236°
2026-04-28 11:32 40.44653 -80.21347 3690 ft 231 kts 264°
2026-04-28 11:33 40.44724 -80.23474 4203 ft 234 kts 265°
2026-04-28 11:33 40.44706 -80.25610 4701 ft 232 kts 259°
2026-04-28 11:33 40.44161 -80.27539 5147 ft 227 kts 236°
2026-04-28 11:33 40.43119 -80.29118 5626 ft 232 kts 228°
2026-04-28 11:34 40.41979 -80.30673 6105 ft 239 kts 227°
2026-04-28 11:34 40.40791 -80.32252 6628 ft 249 kts 227°
2026-04-28 11:34 40.39555 -80.33869 7405 ft 252 kts 227°
2026-04-28 11:34 40.38295 -80.35502 8152 ft 257 kts 226°
2026-04-28 11:35 40.37030 -80.37128 8943 ft 259 kts 226°
2026-04-28 11:35 40.35713 -80.38811 9727 ft 263 kts 226°
2026-04-28 11:35 40.34401 -80.40482 10330 ft 272 kts 226°
2026-04-28 11:35 40.32997 -80.42268 10644 ft 292 kts 226°
2026-04-28 11:36 40.31492 -80.44179 10997 ft 310 kts 226°
2026-04-28 11:36 40.29908 -80.46188 11464 ft 322 kts 226°
2026-04-28 11:36 40.28294 -80.48231 12264 ft 323 kts 226°
2026-04-28 11:36 40.26666 -80.50293 12946 ft 328 kts 227°
2026-04-28 11:37 40.25016 -80.52380 13735 ft 331 kts 227°
2026-04-28 11:37 40.23350 -80.54484 14413 ft 335 kts 227°
2026-04-28 11:37 40.21662 -80.56617 15123 ft 338 kts 228°
2026-04-28 11:37 40.19966 -80.58757 15864 ft 340 kts 229°
2026-04-28 11:38 40.18253 -80.60917 16540 ft 344 kts 229°
2026-04-28 11:38 40.16527 -80.63094 17225 ft 346 kts 229°
2026-04-28 11:38 40.14793 -80.65282 17903 ft 348 kts 230°
2026-04-28 11:38 40.13041 -80.67487 18533 ft 351 kts 230°
2026-04-28 11:39 40.11279 -80.69702 19095 ft 354 kts 230°
2026-04-28 11:39 40.09495 -80.71942 19657 ft 357 kts 230°
2026-04-28 11:39 40.07695 -80.74203 20161 ft 361 kts 230°
2026-04-28 11:39 40.05879 -80.76482 20720 ft 363 kts 230°
2026-04-28 11:40 40.03996 -80.78709 21243 ft 372 kts 222°
2026-04-28 11:40 40.01698 -80.80258 21867 ft 385 kts 205°
2026-04-28 11:40 39.99012 -80.80879 22427 ft 402 kts 188°
2026-04-28 11:40 39.96188 -80.80458 23051 ft 414 kts 176°
2026-04-28 11:41 39.93339 -80.79815 23530 ft 417 kts 178°
2026-04-28 11:41 39.90468 -80.79197 23985 ft 419 kts 178°
2026-04-28 11:41 39.87589 -80.78563 24471 ft 420 kts 177°
2026-04-28 11:41 39.84697 -80.77921 24916 ft 423 kts 177°
2026-04-28 11:42 39.81795 -80.77276 25405 ft 424 kts 177°
2026-04-28 11:42 39.78885 -80.76629 25862 ft 425 kts 177°
2026-04-28 11:42 39.75964 -80.75980 26308 ft 426 kts 177°
2026-04-28 11:42 39.73041 -80.75331 26757 ft 427 kts 177°
2026-04-28 11:43 39.70100 -80.74678 27206 ft 429 kts 177°
2026-04-28 11:43 39.67160 -80.74027 27637 ft 430 kts 176°
2026-04-28 11:43 39.64202 -80.73371 28017 ft 432 kts 176°
2026-04-28 11:43 39.61224 -80.72713 28389 ft 435 kts 176°
2026-04-28 11:44 39.58237 -80.72052 28837 ft 436 kts 176°
2026-04-28 11:44 39.55250 -80.71392 29249 ft 437 kts 176°
2026-04-28 11:44 39.52240 -80.70728 29648 ft 439 kts 176°
2026-04-28 11:44 39.49223 -80.70062 30044 ft 441 kts 176°
2026-04-28 11:45 39.46195 -80.69394 30348 ft 442 kts 176°
2026-04-28 11:45 39.43158 -80.68727 30650 ft 444 kts 176°
2026-04-28 11:45 39.40135 -80.68062 30915 ft 447 kts 176°
2026-04-28 11:45 39.37065 -80.67388 31209 ft 449 kts 176°
2026-04-28 11:46 39.33937 -80.66701 31529 ft 450 kts 176°
2026-04-28 11:46 39.30894 -80.66033 31908 ft 450 kts 176°
2026-04-28 11:46 39.27810 -80.65358 32330 ft 448 kts 177°
2026-04-28 11:46 39.24743 -80.64686 32780 ft 447 kts 177°
2026-04-28 11:47 39.21682 -80.64016 33194 ft 445 kts 177°
2026-04-28 11:47 39.18637 -80.63349 33603 ft 444 kts 178°
2026-04-28 11:47 39.15592 -80.62683 33975 ft 443 kts 178°
2026-04-28 11:47 39.12551 -80.62021 34339 ft 442 kts 178°
2026-04-28 11:48 39.09523 -80.61361 34695 ft 441 kts 178°
2026-04-28 11:48 39.06500 -80.60702 35040 ft 440 kts 178°
2026-04-28 11:48 39.03491 -80.60047 35353 ft 439 kts 178°
2026-04-28 11:48 39.00478 -80.59391 35669 ft 438 kts 178°
2026-04-28 11:49 38.97476 -80.58738 35958 ft 437 kts 178°
2026-04-28 11:49 38.94479 -80.58088 36202 ft 437 kts 178°
2026-04-28 11:49 38.91475 -80.57436 36450 ft 438 kts 178°
2026-04-28 11:49 38.88473 -80.56784 36713 ft 437 kts 178°
2026-04-28 11:50 38.85476 -80.56134 36982 ft 436 kts 178°
2026-04-28 11:50 38.82483 -80.55489 37054 ft 437 kts 179°
2026-04-28 11:50 38.77518 -80.54417 37023 ft 433 kts 179°
2026-04-28 11:51 38.71561 -80.53131 37012 ft 436 kts 178°
2026-04-28 11:51 38.65545 -80.51835 37046 ft 439 kts 178°
2026-04-28 11:52 38.59530 -80.50530 37033 ft 439 kts 178°
2026-04-28 11:52 38.53496 -80.49246 37073 ft 439 kts 178°
2026-04-28 11:53 38.47484 -80.47956 37084 ft 440 kts 178°
2026-04-28 11:53 38.41446 -80.46666 37067 ft 440 kts 178°
2026-04-28 11:54 38.35407 -80.45376 37124 ft 440 kts 178°
2026-04-28 11:54 38.29368 -80.44090 37103 ft 439 kts 178°
2026-04-28 11:55 38.23377 -80.42816 37136 ft 441 kts 178°
2026-04-28 11:55 38.17306 -80.41525 37135 ft 442 kts 178°
2026-04-28 11:56 38.11238 -80.40238 37146 ft 442 kts 178°
2026-04-28 11:56 38.05170 -80.38953 37149 ft 442 kts 178°
2026-04-28 11:57 37.99107 -80.37671 37155 ft 442 kts 178°
2026-04-28 11:57 37.93041 -80.36391 37155 ft 442 kts 178°
2026-04-28 11:58 37.86976 -80.35112 37153 ft 442 kts 178°
2026-04-28 11:58 37.80909 -80.33837 37179 ft 442 kts 178°
2026-04-28 11:59 37.74838 -80.32561 37175 ft 444 kts 177°
2026-04-28 11:59 37.68751 -80.31285 37176 ft 446 kts 177°
2026-04-28 12:00 37.62633 -80.30004 37179 ft 445 kts 177°
2026-04-28 12:00 37.56523 -80.28727 37201 ft 446 kts 177°
2026-04-28 12:01 37.50397 -80.27449 37227 ft 448 kts 177°
2026-04-28 12:01 37.44237 -80.26167 37228 ft 448 kts 177°
2026-04-28 12:02 37.38081 -80.24887 37224 ft 448 kts 177°
2026-04-28 12:02 37.31927 -80.23609 37224 ft 448 kts 177°
2026-04-28 12:03 37.25775 -80.22335 37250 ft 449 kts 176°
2026-04-28 12:03 37.19610 -80.21059 37247 ft 449 kts 177°
2026-04-28 12:04 37.13450 -80.19787 37245 ft 449 kts 177°
2026-04-28 12:04 37.07290 -80.18516 37228 ft 448 kts 177°
2026-04-28 12:05 37.01116 -80.17246 37234 ft 451 kts 176°
2026-04-28 12:05 36.94911 -80.15970 37230 ft 455 kts 176°
2026-04-28 12:06 36.88642 -80.14684 37259 ft 456 kts 176°
2026-04-28 12:06 36.82422 -80.13410 37264 ft 456 kts 176°
2026-04-28 12:07 36.76144 -80.12126 37306 ft 459 kts 176°
2026-04-28 12:07 36.69840 -80.10839 37311 ft 458 kts 176°
2026-04-28 12:08 36.63545 -80.09555 37311 ft 458 kts 176°
2026-04-28 12:08 36.57251 -80.08275 37287 ft 458 kts 176°
2026-04-28 12:09 36.50923 -80.06989 37289 ft 463 kts 176°
2026-04-28 12:09 36.44574 -80.05701 37289 ft 462 kts 176°
2026-04-28 12:10 36.38227 -80.04416 37290 ft 462 kts 176°
2026-04-28 12:10 36.31888 -80.03134 37259 ft 462 kts 175°
2026-04-28 12:11 36.25508 -80.01847 37270 ft 466 kts 175°
2026-04-28 12:11 36.19108 -80.00557 37283 ft 466 kts 175°
2026-04-28 12:12 36.12710 -79.99269 37279 ft 466 kts 175°
2026-04-28 12:12 36.06311 -79.97983 37260 ft 466 kts 175°
2026-04-28 12:13 35.99866 -79.96821 37294 ft 470 kts 176°
2026-04-28 12:13 35.93408 -79.95663 37294 ft 468 kts 176°
2026-04-28 12:14 35.86952 -79.94503 37274 ft 468 kts 176°
2026-04-28 12:14 35.80544 -79.93352 37286 ft 469 kts 175°
2026-04-28 12:15 35.74064 -79.92193 37344 ft 472 kts 175°
2026-04-28 12:15 35.67569 -79.91032 37349 ft 471 kts 175°
2026-04-28 12:16 35.61084 -79.89874 37333 ft 471 kts 175°
2026-04-28 12:16 35.54596 -79.88718 37332 ft 471 kts 175°
2026-04-28 12:17 35.48114 -79.87565 37320 ft 471 kts 175°
2026-04-28 12:17 35.41631 -79.86413 37311 ft 471 kts 175°
2026-04-28 12:18 35.35149 -79.85264 37308 ft 471 kts 175°
2026-04-28 12:18 35.28661 -79.84115 37287 ft 473 kts 175°
2026-04-28 12:19 35.22139 -79.82962 37281 ft 474 kts 175°
2026-04-28 12:19 35.15614 -79.81811 37295 ft 473 kts 175°
2026-04-28 12:20 35.09097 -79.80662 37306 ft 473 kts 175°
2026-04-28 12:20 35.02580 -79.79516 37332 ft 474 kts 175°
2026-04-28 12:21 34.96113 -79.78380 37316 ft 466 kts 175°
2026-04-28 12:21 34.89697 -79.77256 37329 ft 467 kts 175°
2026-04-28 12:22 34.83318 -79.76139 37332 ft 466 kts 175°
2026-04-28 12:22 34.76888 -79.75015 37324 ft 468 kts 175°
2026-04-28 12:23 34.70437 -79.73889 37300 ft 468 kts 175°
2026-04-28 12:23 34.63987 -79.72765 37302 ft 468 kts 175°
2026-04-28 12:24 34.57529 -79.71642 37305 ft 469 kts 175°
2026-04-28 12:24 34.51066 -79.70519 37294 ft 469 kts 174°
2026-04-28 12:25 34.44600 -79.69397 37294 ft 470 kts 174°
2026-04-28 12:25 34.38123 -79.68276 37255 ft 470 kts 174°
2026-04-28 12:26 34.31641 -79.67155 37266 ft 470 kts 174°
2026-04-28 12:26 34.25167 -79.66037 37270 ft 470 kts 174°
2026-04-28 12:27 34.18694 -79.64865 37277 ft 470 kts 174°
2026-04-28 12:27 34.12262 -79.63699 37275 ft 470 kts 174°
2026-04-28 12:28 34.05789 -79.62528 37272 ft 471 kts 174°
2026-04-28 12:28 33.99318 -79.61359 37261 ft 470 kts 174°
2026-04-28 12:29 33.89608 -79.59608 37245 ft 470 kts 174°
2026-04-28 12:30 33.83131 -79.58443 37243 ft 470 kts 174°
2026-04-28 12:30 33.76657 -79.57280 37233 ft 471 kts 174°
2026-04-28 12:31 33.70166 -79.56115 37242 ft 472 kts 174°
2026-04-28 12:31 33.63666 -79.54951 37240 ft 472 kts 174°
2026-04-28 12:32 33.57169 -79.53789 37240 ft 472 kts 174°
2026-04-28 12:32 33.50668 -79.52628 37231 ft 472 kts 174°
2026-04-28 12:33 33.44184 -79.51472 37245 ft 470 kts 174°
2026-04-28 12:33 33.37711 -79.50319 37253 ft 470 kts 174°
2026-04-28 12:34 33.31232 -79.49167 37254 ft 470 kts 174°
2026-04-28 12:34 33.24757 -79.48018 37244 ft 470 kts 174°
2026-04-28 12:35 33.18291 -79.46872 37236 ft 468 kts 174°
2026-04-28 12:35 33.11841 -79.45731 37234 ft 469 kts 174°
2026-04-28 12:36 33.05392 -79.44591 37248 ft 469 kts 174°
2026-04-28 12:36 32.98941 -79.43453 37242 ft 469 kts 174°
2026-04-28 12:37 32.92495 -79.42316 37256 ft 466 kts 175°
2026-04-28 12:37 32.86132 -79.41197 37233 ft 460 kts 175°
2026-04-28 12:38 32.79792 -79.40084 37211 ft 461 kts 175°
2026-04-28 12:38 32.73491 -79.38978 37211 ft 461 kts 175°
2026-04-28 12:39 32.67146 -79.37867 37227 ft 461 kts 174°
2026-04-28 12:39 32.60791 -79.36755 37225 ft 461 kts 174°
2026-04-28 12:40 32.54446 -79.35647 37214 ft 461 kts 174°
2026-04-28 12:40 32.49163 -79.34726 37222 ft 461 kts 174°
2026-04-28 12:41 32.42816 -79.33620 37207 ft 461 kts 174°
2026-04-28 12:41 32.36466 -79.32515 37214 ft 461 kts 174°
2026-04-28 12:42 32.30117 -79.31412 37213 ft 461 kts 174°
2026-04-28 12:42 32.23767 -79.30311 37212 ft 461 kts 174°
2026-04-28 12:43 32.17415 -79.29211 37214 ft 461 kts 174°
2026-04-28 12:43 32.11054 -79.28110 37219 ft 463 kts 174°
2026-04-28 12:44 32.04678 -79.27009 37209 ft 463 kts 174°
2026-04-28 12:44 31.98303 -79.25909 37211 ft 463 kts 174°
2026-04-28 12:45 31.91928 -79.24811 37210 ft 463 kts 174°
2026-04-28 12:45 31.85592 -79.23721 37209 ft 464 kts 174°
2026-04-28 12:46 31.79201 -79.22623 37209 ft 464 kts 174°
2026-04-28 12:46 31.72813 -79.21528 37208 ft 464 kts 174°
2026-04-28 12:47 31.66419 -79.20432 37204 ft 464 kts 174°
2026-04-28 12:47 31.60024 -79.19338 37201 ft 464 kts 174°
2026-04-28 12:48 31.53616 -79.18244 37202 ft 466 kts 174°
2026-04-28 12:48 31.47194 -79.17149 37203 ft 466 kts 174°
2026-04-28 12:49 31.40778 -79.16056 37203 ft 466 kts 174°
2026-04-28 12:49 31.34402 -79.14971 37206 ft 466 kts 174°
2026-04-28 12:50 31.27974 -79.13879 37209 ft 468 kts 174°
2026-04-28 12:50 31.21517 -79.12784 37204 ft 468 kts 174°
2026-04-28 12:51 31.15066 -79.11691 37198 ft 468 kts 174°
2026-04-28 12:51 31.08611 -79.10599 37201 ft 469 kts 174°
2026-04-28 12:52 31.02156 -79.09508 37197 ft 469 kts 174°
2026-04-28 12:52 30.95687 -79.08417 37199 ft 470 kts 174°
2026-04-28 12:53 30.89213 -79.07326 37200 ft 470 kts 174°
2026-04-28 12:53 30.82740 -79.06237 37204 ft 470 kts 174°
2026-04-28 12:54 30.76278 -79.05151 37193 ft 467 kts 173°
2026-04-28 12:54 30.69838 -79.04070 37212 ft 468 kts 173°
2026-04-28 12:55 30.63389 -79.02989 37201 ft 468 kts 173°
2026-04-28 12:55 30.56981 -79.01917 37195 ft 468 kts 173°
2026-04-28 12:56 30.50535 -79.00839 37195 ft 468 kts 173°
2026-04-28 12:56 30.44081 -78.99762 37195 ft 470 kts 173°
2026-04-28 12:57 30.37608 -78.98690 37194 ft 470 kts 173°
2026-04-28 12:57 30.31134 -78.97618 37195 ft 470 kts 173°
2026-04-28 12:58 30.24667 -78.96549 37194 ft 470 kts 173°
2026-04-28 12:58 30.18195 -78.95480 37195 ft 470 kts 173°
2026-04-28 12:59 30.11721 -78.94413 37195 ft 470 kts 173°
2026-04-28 12:59 30.05250 -78.93347 37194 ft 470 kts 173°
2026-04-28 13:00 29.98772 -78.92282 37197 ft 470 kts 173°
2026-04-28 13:00 29.92297 -78.91218 37188 ft 470 kts 173°
2026-04-28 13:01 29.85801 -78.90153 37203 ft 473 kts 173°
2026-04-28 13:01 29.79334 -78.89094 37194 ft 472 kts 173°
2026-04-28 13:02 29.72823 -78.88028 37191 ft 472 kts 173°
2026-04-28 13:02 29.66312 -78.86965 37192 ft 473 kts 173°
2026-04-28 13:03 29.59788 -78.85900 37192 ft 474 kts 173°
2026-04-28 13:03 29.53246 -78.84834 37190 ft 475 kts 173°
2026-04-28 13:04 29.46708 -78.83770 37184 ft 475 kts 173°
2026-04-28 13:04 29.40166 -78.82707 37184 ft 475 kts 173°
2026-04-28 13:05 29.33625 -78.81645 37173 ft 475 kts 173°
2026-04-28 13:05 29.27062 -78.80581 37183 ft 477 kts 173°
2026-04-28 13:06 29.20493 -78.79517 37179 ft 477 kts 173°
2026-04-28 13:06 29.13926 -78.78456 37179 ft 477 kts 173°
2026-04-28 13:07 29.07357 -78.77395 37179 ft 477 kts 173°
2026-04-28 13:07 29.00774 -78.76333 37179 ft 478 kts 173°
2026-04-28 13:08 28.94179 -78.75271 37173 ft 479 kts 173°
2026-04-28 13:08 28.87629 -78.74217 37167 ft 478 kts 173°
2026-04-28 13:09 28.81033 -78.73158 37169 ft 479 kts 173°
2026-04-28 13:09 28.74434 -78.72099 37160 ft 479 kts 173°
2026-04-28 13:10 28.67823 -78.71039 37167 ft 480 kts 173°
2026-04-28 13:10 28.61206 -78.69980 37162 ft 480 kts 173°
2026-04-28 13:11 28.54597 -78.68924 37166 ft 480 kts 173°
2026-04-28 13:11 28.47989 -78.67869 37150 ft 478 kts 173°
2026-04-28 13:12 28.41391 -78.66817 37159 ft 479 kts 173°
2026-04-28 13:12 28.34797 -78.65767 37156 ft 478 kts 173°
2026-04-28 13:13 28.28207 -78.64719 37154 ft 478 kts 173°
2026-04-28 13:13 28.21610 -78.63671 37156 ft 478 kts 173°
2026-04-28 13:14 28.15012 -78.62625 37143 ft 479 kts 173°
2026-04-28 13:14 28.08394 -78.61576 37150 ft 480 kts 173°
2026-04-28 13:15 28.01776 -78.60529 37152 ft 480 kts 173°
2026-04-28 13:15 27.95160 -78.59483 37142 ft 480 kts 173°
2026-04-28 13:16 27.88586 -78.58446 37137 ft 480 kts 174°
2026-04-28 13:16 27.81955 -78.57400 37143 ft 482 kts 174°
2026-04-28 13:17 27.75315 -78.56354 37142 ft 482 kts 174°
2026-04-28 13:17 27.68675 -78.55310 37139 ft 482 kts 174°
2026-04-28 13:18 27.62037 -78.54268 37138 ft 482 kts 174°
2026-04-28 13:18 27.55394 -78.53225 37136 ft 483 kts 174°
2026-04-28 13:19 27.48720 -78.52179 37137 ft 484 kts 174°
2026-04-28 13:19 27.42050 -78.51135 37137 ft 484 kts 174°
2026-04-28 13:20 27.35382 -78.50093 37133 ft 484 kts 174°
2026-04-28 13:20 27.28714 -78.49052 37137 ft 484 kts 174°
2026-04-28 13:21 27.22041 -78.48012 37134 ft 484 kts 174°
2026-04-28 13:21 27.15379 -78.46974 37133 ft 484 kts 174°
2026-04-28 13:22 27.08711 -78.45937 37129 ft 484 kts 174°
2026-04-28 13:22 27.02038 -78.44900 37131 ft 484 kts 174°
2026-04-28 13:23 26.95367 -78.43865 37124 ft 485 kts 175°
2026-04-28 13:23 26.88668 -78.42826 37130 ft 486 kts 175°
2026-04-28 13:24 26.81970 -78.41790 37129 ft 486 kts 175°
2026-04-28 13:24 26.75318 -78.40761 37128 ft 486 kts 175°
2026-04-28 13:25 26.68622 -78.39727 37112 ft 486 kts 175°
2026-04-28 13:25 26.61908 -78.38691 37134 ft 488 kts 175°
2026-04-28 13:26 26.55184 -78.37655 37129 ft 487 kts 175°
2026-04-28 13:26 26.48460 -78.36620 37126 ft 487 kts 175°
2026-04-28 13:27 26.41740 -78.35587 37126 ft 487 kts 175°
2026-04-28 13:27 26.35017 -78.34555 37115 ft 488 kts 175°
2026-04-28 13:28 26.28281 -78.33522 37123 ft 488 kts 175°
2026-04-28 13:28 26.21550 -78.32491 37124 ft 488 kts 175°
2026-04-28 13:29 26.15954 -78.31635 37122 ft 488 kts 175°
2026-04-28 13:29 26.09226 -78.30606 37124 ft 488 kts 175°
2026-04-28 13:30 26.02500 -78.29579 37126 ft 488 kts 175°
2026-04-28 13:30 25.95765 -78.28552 37129 ft 488 kts 175°
2026-04-28 13:31 25.85678 -78.27016 37125 ft 488 kts 175°
2026-04-28 13:31 25.78950 -78.25993 37122 ft 488 kts 175°
2026-04-28 13:32 25.72221 -78.24971 37130 ft 488 kts 175°
2026-04-28 13:32 25.65501 -78.23951 37128 ft 487 kts 175°
2026-04-28 13:33 25.58779 -78.22932 37123 ft 487 kts 175°
2026-04-28 13:33 25.52053 -78.21914 37111 ft 487 kts 175°
2026-04-28 13:34 25.45338 -78.20899 37089 ft 487 kts 176°
2026-04-28 13:34 25.38621 -78.19884 37121 ft 487 kts 176°
2026-04-28 13:35 25.31908 -78.18871 37124 ft 487 kts 176°
2026-04-28 13:35 25.25241 -78.17799 37124 ft 487 kts 175°
2026-04-28 13:36 25.18535 -78.16717 37124 ft 487 kts 175°
2026-04-28 13:36 25.11831 -78.15639 37121 ft 486 kts 175°
2026-04-28 13:37 25.05135 -78.14562 37120 ft 486 kts 175°
2026-04-28 13:37 24.98439 -78.13487 37118 ft 486 kts 175°
2026-04-28 13:38 24.91746 -78.12414 37119 ft 486 kts 175°
2026-04-28 13:38 24.85053 -78.11341 37099 ft 486 kts 176°
2026-04-28 13:39 24.78369 -78.10272 37125 ft 484 kts 176°
2026-04-28 13:39 24.71698 -78.09205 37124 ft 484 kts 176°
2026-04-28 13:40 24.65030 -78.08140 37124 ft 484 kts 176°
2026-04-28 13:40 24.58367 -78.07077 37124 ft 484 kts 176°
2026-04-28 13:41 24.51700 -78.06015 37099 ft 483 kts 176°
2026-04-28 13:41 24.45062 -78.04958 37116 ft 482 kts 176°
2026-04-28 13:42 24.38425 -78.03903 37117 ft 482 kts 176°
2026-04-28 13:42 24.31786 -78.02848 37116 ft 482 kts 176°
2026-04-28 13:43 24.25152 -78.01796 37116 ft 482 kts 176°
2026-04-28 13:43 24.18520 -78.00745 37116 ft 482 kts 176°
2026-04-28 13:44 24.11930 -77.99701 37111 ft 482 kts 176°
2026-04-28 13:44 24.05300 -77.98653 37114 ft 482 kts 176°
2026-04-28 13:45 23.98660 -77.97603 37119 ft 482 kts 176°
2026-04-28 13:45 23.92031 -77.96557 37118 ft 482 kts 176°
2026-04-28 13:46 23.85405 -77.95512 37128 ft 479 kts 176°
2026-04-28 13:46 23.78821 -77.94475 37114 ft 477 kts 176°
2026-04-28 13:47 23.72238 -77.93439 37101 ft 478 kts 176°
2026-04-28 13:47 23.65656 -77.92405 37100 ft 478 kts 176°
2026-04-28 13:48 23.59076 -77.91371 37089 ft 478 kts 176°
2026-04-28 13:48 23.52508 -77.90341 37111 ft 476 kts 176°
2026-04-28 13:49 23.45997 -77.89321 37111 ft 476 kts 176°
2026-04-28 13:49 23.39443 -77.88294 37110 ft 476 kts 176°
2026-04-28 13:50 23.32888 -77.87269 37108 ft 476 kts 176°
2026-04-28 13:50 23.26332 -77.86245 37081 ft 476 kts 176°
2026-04-28 13:51 23.19797 -77.85225 37105 ft 474 kts 176°
2026-04-28 13:51 23.13266 -77.84206 37105 ft 474 kts 176°
2026-04-28 13:52 23.06740 -77.83190 37103 ft 474 kts 176°
2026-04-28 13:52 23.00216 -77.82174 37101 ft 474 kts 176°
2026-04-28 13:53 22.94651 -77.81309 37085 ft 474 kts 176°
2026-04-28 13:53 22.88143 -77.80298 37101 ft 472 kts 176°
2026-04-28 13:54 22.81638 -77.79288 37094 ft 472 kts 176°
2026-04-28 13:54 22.75135 -77.78280 37104 ft 472 kts 176°
2026-04-28 13:55 22.68636 -77.77252 37158 ft 472 kts 176°
2026-04-28 13:55 22.65614 -77.76716 37330 ft 472 kts 175°
2026-04-28 13:55 22.62394 -77.76236 37186 ft 473 kts 178°
2026-04-28 13:56 22.59107 -77.75771 37038 ft 469 kts 177°
2026-04-28 13:56 22.55915 -77.75298 37105 ft 470 kts 177°
2026-04-28 13:56 22.50263 -77.74433 37098 ft 471 kts 176°
2026-04-28 13:57 22.43772 -77.73431 37099 ft 471 kts 176°
2026-04-28 13:57 22.37280 -77.72430 37097 ft 471 kts 176°
2026-04-28 13:58 22.30781 -77.71429 37071 ft 471 kts 176°
2026-04-28 13:58 22.24298 -77.70432 37097 ft 471 kts 176°
2026-04-28 13:59 22.17821 -77.69436 37098 ft 470 kts 176°
2026-04-28 13:59 22.11342 -77.68440 37096 ft 470 kts 176°
2026-04-28 14:00 22.04911 -77.67453 37099 ft 470 kts 177°
2026-04-28 14:00 21.98432 -77.66460 37078 ft 470 kts 176°
2026-04-28 14:01 21.91965 -77.65469 37091 ft 469 kts 176°
2026-04-28 14:01 21.85504 -77.64480 37095 ft 469 kts 176°
2026-04-28 14:02 21.79047 -77.63493 37093 ft 469 kts 176°
2026-04-28 14:02 21.72584 -77.62506 37091 ft 469 kts 176°
2026-04-28 14:03 21.66126 -77.61520 37074 ft 469 kts 176°
2026-04-28 14:03 21.59677 -77.60536 37080 ft 468 kts 176°
2026-04-28 14:04 21.53235 -77.59555 37088 ft 468 kts 176°
2026-04-28 14:04 21.46793 -77.58574 37087 ft 468 kts 176°
2026-04-28 14:05 21.40351 -77.57595 37079 ft 468 kts 176°
2026-04-28 14:05 21.33914 -77.56617 37097 ft 468 kts 176°
2026-04-28 14:06 21.27478 -77.55639 37095 ft 467 kts 176°
2026-04-28 14:06 21.21048 -77.54664 37087 ft 466 kts 176°
2026-04-28 14:07 21.14621 -77.53690 37088 ft 467 kts 176°
2026-04-28 14:07 21.08236 -77.52723 37086 ft 467 kts 176°
2026-04-28 14:08 21.01808 -77.51751 37082 ft 466 kts 176°
2026-04-28 14:08 20.96425 -77.50937 37087 ft 467 kts 176°
2026-04-28 14:09 20.88957 -77.49809 37083 ft 467 kts 176°
2026-04-28 14:09 20.82527 -77.48839 37084 ft 466 kts 176°
2026-04-28 14:10 20.76099 -77.47869 37079 ft 466 kts 176°
2026-04-28 14:10 20.69674 -77.46901 37080 ft 466 kts 176°
2026-04-28 14:11 20.63253 -77.45935 37072 ft 464 kts 176°
2026-04-28 14:11 20.56855 -77.44972 37076 ft 464 kts 176°
2026-04-28 14:12 20.50516 -77.43525 37119 ft 467 kts 172°
2026-04-28 14:12 20.44168 -77.42022 37064 ft 466 kts 172°
2026-04-28 14:13 20.37827 -77.40547 37068 ft 467 kts 172°
2026-04-28 14:13 20.31487 -77.39072 37069 ft 465 kts 172°
2026-04-28 14:14 20.25212 -77.37613 37071 ft 464 kts 172°
2026-04-28 14:14 20.18898 -77.36147 37078 ft 464 kts 172°
2026-04-28 14:15 20.12587 -77.34682 37074 ft 464 kts 172°
2026-04-28 14:15 20.06274 -77.33219 37073 ft 464 kts 172°
2026-04-28 14:16 19.99960 -77.31755 37058 ft 464 kts 172°
2026-04-28 14:16 19.93692 -77.30304 37062 ft 459 kts 173°
2026-04-28 14:17 19.87445 -77.28859 37032 ft 458 kts 173°
2026-04-28 14:17 19.84348 -77.28142 36351 ft 456 kts 173°
2026-04-28 14:17 19.81200 -77.27417 35164 ft 469 kts 173°
2026-04-28 14:18 19.77995 -77.26677 34254 ft 473 kts 173°
2026-04-28 14:18 19.74777 -77.25932 33354 ft 474 kts 173°
2026-04-28 14:18 19.71556 -77.25189 32529 ft 473 kts 173°
2026-04-28 14:18 19.68346 -77.24449 31868 ft 470 kts 173°
2026-04-28 14:19 19.65176 -77.23717 31359 ft 466 kts 173°
2026-04-28 14:19 19.61995 -77.22985 30931 ft 468 kts 172°
2026-04-28 14:19 19.58810 -77.22251 30445 ft 469 kts 172°
2026-04-28 14:19 19.56693 -77.21763 30110 ft 470 kts 172°
2026-04-28 14:20 19.53494 -77.21027 29525 ft 470 kts 172°
2026-04-28 14:20 19.50323 -77.20296 28866 ft 464 kts 172°
2026-04-28 14:20 19.47183 -77.19574 28224 ft 460 kts 172°
2026-04-28 14:20 19.44069 -77.18858 27650 ft 455 kts 172°
2026-04-28 14:21 19.40994 -77.18151 27067 ft 451 kts 172°
2026-04-28 14:21 19.37938 -77.17449 26501 ft 447 kts 172°
2026-04-28 14:21 19.34914 -77.16754 25937 ft 443 kts 172°
2026-04-28 14:21 19.31908 -77.16063 25372 ft 440 kts 171°
2026-04-28 14:22 19.28929 -77.15380 24828 ft 437 kts 171°
2026-04-28 14:22 19.25962 -77.14700 24286 ft 435 kts 171°
2026-04-28 14:22 19.23012 -77.14023 23750 ft 433 kts 171°
2026-04-28 14:22 19.20077 -77.13351 23129 ft 431 kts 171°
2026-04-28 14:23 19.17157 -77.12681 22583 ft 427 kts 171°
2026-04-28 14:23 19.14264 -77.12018 22063 ft 423 kts 170°
2026-04-28 14:23 19.11404 -77.11364 21564 ft 419 kts 170°
2026-04-28 14:23 19.08605 -77.10723 21080 ft 415 kts 170°
2026-04-28 14:24 19.05759 -77.10071 20593 ft 412 kts 170°
2026-04-28 14:24 19.02972 -77.09434 20117 ft 408 kts 170°
2026-04-28 14:24 19.00205 -77.08801 19640 ft 405 kts 169°
2026-04-28 14:24 18.97492 -77.08180 19185 ft 403 kts 169°
2026-04-28 14:25 18.94725 -77.07548 18731 ft 400 kts 170°
2026-04-28 14:25 18.92049 -77.06936 18283 ft 398 kts 169°
2026-04-28 14:25 18.89350 -77.06320 17780 ft 395 kts 169°
2026-04-28 14:25 18.86639 -77.05700 17306 ft 392 kts 169°
2026-04-28 14:26 18.84021 -77.05103 16913 ft 387 kts 169°
2026-04-28 14:26 18.81394 -77.04503 16418 ft 386 kts 169°
2026-04-28 14:26 18.78784 -77.03908 15977 ft 382 kts 169°
2026-04-28 14:26 18.76198 -77.03318 15573 ft 378 kts 169°
2026-04-28 14:27 18.73632 -77.02733 15136 ft 376 kts 168°
2026-04-28 14:27 18.71084 -77.02153 14697 ft 373 kts 169°
2026-04-28 14:27 18.68562 -77.01578 14308 ft 369 kts 169°
2026-04-28 14:27 18.66055 -77.01007 13880 ft 367 kts 168°
2026-04-28 14:28 18.63579 -77.00444 13399 ft 357 kts 168°
2026-04-28 14:28 18.61204 -76.99904 12995 ft 342 kts 168°
2026-04-28 14:28 18.58902 -76.99380 12652 ft 336 kts 168°
2026-04-28 14:28 18.56627 -76.98863 12264 ft 334 kts 168°
2026-04-28 14:29 18.54365 -76.98348 11871 ft 331 kts 168°
2026-04-28 14:29 18.52118 -76.97837 11502 ft 329 kts 168°
2026-04-28 14:29 18.49891 -76.97331 11128 ft 326 kts 167°
2026-04-28 14:29 18.47685 -76.96829 10850 ft 321 kts 167°
2026-04-28 14:30 18.45536 -76.96342 10705 ft 311 kts 167°
2026-04-28 14:30 18.43452 -76.95869 10555 ft 302 kts 167°
2026-04-28 14:30 18.41435 -76.95410 10420 ft 293 kts 167°
2026-04-28 14:30 18.39472 -76.94965 10275 ft 284 kts 167°
2026-04-28 14:31 18.37568 -76.94532 10158 ft 276 kts 167°
2026-04-28 14:31 18.35724 -76.94113 10016 ft 264 kts 167°
2026-04-28 14:31 18.33973 -76.93715 9760 ft 252 kts 167°
2026-04-28 14:31 18.32293 -76.93335 9463 ft 243 kts 166°
2026-04-28 14:32 18.30687 -76.92971 9187 ft 235 kts 166°
2026-04-28 14:32 18.29096 -76.92610 8974 ft 234 kts 167°
2026-04-28 14:32 18.27500 -76.92249 8727 ft 235 kts 166°
2026-04-28 14:32 18.25906 -76.91887 8458 ft 234 kts 166°
2026-04-28 14:33 18.24316 -76.91526 8189 ft 233 kts 166°
2026-04-28 14:33 18.22733 -76.91168 7931 ft 232 kts 166°
2026-04-28 14:33 18.21152 -76.90815 7699 ft 232 kts 167°
2026-04-28 14:33 18.19552 -76.90916 7353 ft 235 kts 197°
2026-04-28 14:34 18.17187 -76.93235 6788 ft 241 kts 241°
2026-04-28 14:34 18.16339 -76.94758 6555 ft 241 kts 234°
2026-04-28 14:34 18.15370 -76.96160 6289 ft 231 kts 230°
2026-04-28 14:35 18.14373 -76.97434 6001 ft 220 kts 226°
2026-04-28 14:35 18.13367 -76.98585 5844 ft 209 kts 224°
2026-04-28 14:35 18.12339 -76.99647 5786 ft 206 kts 220°
2026-04-28 14:35 18.11264 -77.00640 5716 ft 205 kts 218°
2026-04-28 14:36 18.10150 -77.01572 5624 ft 205 kts 214°
2026-04-28 14:36 18.09008 -77.02433 5467 ft 196 kts 211°
2026-04-28 14:36 18.07852 -77.03221 5267 ft 201 kts 209°
2026-04-28 14:36 18.06571 -77.03766 5000 ft 198 kts 184°
2026-04-28 14:37 18.05260 -77.03512 4755 ft 190 kts 148°
2026-04-28 14:37 18.04315 -77.02589 4566 ft 186 kts 125°
2026-04-28 14:37 18.03591 -77.01451 4304 ft 187 kts 118°
2026-04-28 14:37 18.02958 -77.00290 4059 ft 185 kts 115°
2026-04-28 14:38 18.02371 -76.99087 3792 ft 185 kts 113°
2026-04-28 14:38 18.01809 -76.97866 3573 ft 186 kts 113°
2026-04-28 14:38 18.01260 -76.96631 3300 ft 186 kts 112°
2026-04-28 14:38 18.00719 -76.95399 3047 ft 185 kts 111°
2026-04-28 14:39 18.00184 -76.94167 2785 ft 187 kts 112°
2026-04-28 14:39 17.99642 -76.92915 2531 ft 188 kts 111°
2026-04-28 14:39 17.99096 -76.91670 2327 ft 187 kts 112°
2026-04-28 14:39 17.98554 -76.90440 2071 ft 182 kts 112°
2026-04-28 14:40 17.98003 -76.89332 1864 ft 166 kts 117°
2026-04-28 14:40 17.97615 -76.88649 1721 ft 163 kts 117°
2026-04-28 14:40 17.96914 -76.87280 1598 ft 156 kts 115°
2026-04-28 14:40 17.96471 -76.86264 1470 ft 152 kts 111°
2026-04-28 14:41 17.96008 -76.85272 1353 ft 149 kts 111°
2026-04-28 14:41 17.95595 -76.84290 1093 ft 145 kts 105°
2026-04-28 14:41 17.95251 -76.83311 877 ft 142 kts 105°
2026-04-28 14:41 17.94947 -76.82337 595 ft 142 kts 110°
2026-04-28 14:42 17.94579 -76.81367 305 ft 144 kts 110°
2026-04-28 14:42 17.94204 -76.80368 178 ft 143 kts 113°
2026-04-28 14:42 17.93842 -76.79457 21 ft 126 kts 111°
2026-04-28 14:42 17.93538 -76.78678 18 ft 95 kts 112°
2026-04-28 14:43 17.93401 -76.78308 21 ft 19 kts 95°
2026-04-28 14:43 17.93403 -76.78193 21 ft 5 kts 85°
2026-04-28 14:43 17.93405 -76.78171 21 ft 2 kts 84°
2026-04-28 14:43 17.93410 -76.78157 21 ft 1 kts 59°
2026-04-28 14:44 17.93423 -76.78144 22 ft 0 kts 36°
2026-04-28 14:45 17.93424 -76.78144 21 ft 0 kts 39°
2026-04-28 14:45 17.93424 -76.78140 22 ft 3 kts 72°
2026-04-28 14:45 17.93418 -76.78107 21 ft 7 kts 99°
2026-04-28 14:46 17.93421 -76.78047 21 ft 10 kts 82°
2026-04-28 14:46 17.93433 -76.77978 23 ft 10 kts 69°
2026-04-28 14:46 17.93484 -76.77936 21 ft 8 kts 21°
2026-04-28 14:46 17.93535 -76.77915 21 ft 7 kts 21°
2026-04-28 14:47 17.93588 -76.77893 21 ft 9 kts 21°
2026-04-28 14:47 17.93635 -76.77892 21 ft 6 kts 323°
2026-04-28 14:47 17.93653 -76.77926 20 ft 6 kts 291°
2026-04-28 14:47 17.93655 -76.77932 20 ft 0 kts 291°